Weather in Bogolyubovka

Russia / Omsk Oblast     55°18′14″N   72°39′27″E
temp.,
°C
wind,
m/s
gust,
m/s
humid.,
%
clouds,
%
prec.,
mm/h
press.,
hPa
HPBL,
m
13 may, thu
thu1300:00+12nnw51249100 0.0 1022403
03:00+10nnw4949100 0.0 1022229
06:00+8nnw375371 0.0 1023149
09:00+11nw3746100 0.0 1023436
12:00+8wsw2283100 2.3 1022176
15:00+10ssw237280 0.1 1020149
18:00+15n496894 0.4 1020669
21:00+13nw338851 0.3 102123
14 may, fri
fri1400:00+11nne35915 0.3 102281
03:00+9nne33905 0.0 102430
06:00+8nne36935 0.0 1026116
09:00+13nne34624 0.0 1027586
12:00+17n34385 0.0 10281103
15:00+20nw342812 0.0 10271414
18:00+21wnw34284 0.0 10261227
21:00+17sw33465 0.0 102522
15 may, sat
sat1500:00+15sw495078 0.0 1024142
03:00+14sw5136587 0.9 1023198
06:00+15wsw6165919 1.1 1022353
09:00+21w7124714 0.0 1021473
12:00+26w793724 0.0 1020865
15:00+29w810294 0.0 10193066
18:00+29wnw68295 0.0 10182983
21:00+23wnw584799 0.0 1017142
16 may, sun
sun1600:00+18nnw4967100 0.9 1019379
03:00+16wsw3479100 0.1 101777
06:00+15wnw4118438 0.1 1018291
09:00+19nnw57635 0.0 1018556
12:00+24nnw454542 0.0 10181338
15:00+26nnw553996 0.0 10182488
18:00+25nnw463999 0.0 1018691
21:00+21nnw225246 0.0 101911
17 may, mon
mon1700:00+19sw335278 0.0 101820
03:00+18sw475689 0.0 1018106
06:00+17sw4126352 0.1 1018198
09:00+23wsw711465 0.0 1017492
12:00+29w68335 0.0 1016967
15:00+31w8102628 0.0 10143515
18:00+30w692990 0.0 10123590
21:00+23sw455087 0.0 101367